Wind_Speed
32 31 30 30 31 30 30 30 30 30 31 33 34 34 33 34 36 38 40 42 43 43 42 42 43 43 43 43 43 43 43 42 41 39 38 37 36 36 36 36 35 35 35 34
31 30 30 29 29 29 30 31 32 33 35 37 37 38 37 38 38 40 42 43 45 45 45 45 44 44 44 44 44 44 44 43 42 41 39 38 37 36 36 36 36 35 35 35
30 29 28 28 28 29 30 32 34 36 38 40 42 42 41 41 41 42 44 46 47 47 48 48 47 46 45 45 45 45 44 44 43 42 41 39 38 37 36 36 36 37 36 36
30 29 28 28 29 31 32 34 36 39 41 42 45 49 44 44 43 44 46 49 50 50 50 50 50 48 47 46 45 45 45 44 43 42 41 40 39 37 36 36 36 37 37 37
30 29 29 29 30 32 34 36 38 41 43 45 46 50 47 46 45 46 48 50 52 53 53 52 52 51 50 48 47 46 45 44 43 42 41 40 38 37 37 37 37 37 37 37
31 31 30 31 32 34 35 37 39 41 44 47 46 49 48 46 46 47 49 51 53 55 55 55 55 54 53 52 50 48 47 45 43 42 41 39 38 38 37 37 37 37 37 37
31 31 31 31 32 34 35 37 39 43 45 46 47 49 46 44 47 49 51 52 54 56 58 58 57 56 56 54 51 50 48 46 44 43 41 39 38 38 38 37 37 37 37 37
30 30 30 31 31 33 34 36 38 42 45 46 45 45 41 42 46 49 51 53 54 55 57 58 58 57 57 56 54 51 49 47 45 43 41 39 38 38 38 37 37 37 37 38
29 29 28 30 30 31 33 35 37 40 42 43 43 41 39 40 44 47 49 50 51 52 54 56 57 57 57 56 54 52 50 48 46 43 41 40 38 38 38 38 37 37 37 38
27 27 27 28 29 31 33 33 34 36 38 40 39 36 34 33 37 41 44 47 48 49 51 54 56 56 55 55 54 52 50 48 46 44 42 40 38 38 38 37 37 37 38 39
25 25 24 25 27 28 28 29 30 33 35 38 38 30 28 29 32 35 39 41 43 44 46 50 54 55 55 54 53 52 50 47 45 43 41 39 37 37 37 37 37 37 37 38
23 22 22 23 25 25 25 26 29 32 33 35 36 26 25 27 29 31 33 34 35 36 39 44 49 52 52 52 51 50 48 46 43 41 39 38 37 36 36 36 36 37 37 38
21 21 20 20 21 22 22 24 27 29 31 30 30 25 23 24 24 26 27 26 26 27 31 37 44 48 49 49 48 47 46 43 41 39 37 36 36 36 36 36 36 36 37 37
20 18 17 18 20 21 20 21 23 26 26 24 23 22 19 19 19 20 19 18 17 20 26 33 40 44 46 46 45 44 42 40 38 37 36 35 35 35 35 35 36 36 36 37
18 17 16 17 18 18 17 17 19 21 20 20 17 17 14 13 13 13 11 8 9 15 22 31 37 40 42 42 42 41 39 36 35 34 34 34 34 34 35 35 34 35 36 37
17 16 15 14 16 15 13 13 14 14 14 14 13 12 10 8 6 6 3 1 8 15 22 30 35 38 38 38 37 36 34 32 32 31 31 32 32 33 33 33 33 34 36 39
15 15 13 12 13 11 9 9 9 10 10 9 9 9 8 6 3 3 4 7 12 18 23 29 32 34 34 34 32 30 29 29 29 29 29 30 31 31 31 32 33 35 38 41
14 14 12 10 10 8 7 6 6 6 6 6 6 5 5 3 2 4 7 10 15 19 23 27 28 29 29 28 27 26 26 26 26 27 27 28 28 29 30 31 34 37 40 42
13 12 11 10 8 5 4 3 2 1 1 2 2 2 2 2 4 7 9 11 14 17 20 22 23 23 23 23 22 22 23 23 23 24 24 25 26 28 30 33 36 38 41 43
13 12 11 9 7 5 4 3 1 3 2 1 1 2 3 4 5 7 9 11 13 14 16 17 18 18 19 19 19 19 19 20 20 21 22 24 26 29 32 34 36 39 42 44
13 12 11 9 7 5 6 5 3 3 2 3 3 2 2 3 4 6 8 10 11 12 12 13 14 15 15 16 16 16 17 17 18 20 22 25 27 30 32 34 37 40 43 45
13 13 12 10 8 6 7 6 5 3 3 4 3 2 2 3 4 5 7 8 9 10 11 11 12 12 12 12 13 14 15 17 19 21 23 25 28 30 33 35 38 41 44 46
13 13 12 11 9 8 8 7 6 4 4 4 4 3 3 3 4 6 7 7 7 8 8 9 9 9 10 10 12 13 15 17 19 21 23 26 28 31 34 37 39 42 45 47
13 12 12 12 11 10 10 9 7 5 5 4 4 4 4 4 4 5 6 6 7 7 7 7 8 8 9 10 12 14 15 17 19 22 24 27 30 32 35 38 41 44 46 48
12 12 12 12 11 10 10 10 8 7 6 6 5 5 5 5 6 6 6 6 7 7 7 8 8 9 10 11 12 14 16 18 21 23 26 29 31 34 37 40 42 44 46 48
13 13 13 12 12 11 11 11 10 9 8 8 7 6 6 6 6 6 7 8 8 8 8 8 8 9 10 11 13 15 18 20 23 25 28 31 33 36 39 41 43 44 46 48
Wind_Direction
220 221 223 226 230 234 238 243 247 251 254 256 259 262 262 261 260 259 258 257 256 255 252 250 247 243 242 241 241 242 244 246 248 250 252 253 255 256 257 257 258 260 261 262
222 224 227 230 235 240 244 248 252 255 258 260 262 264 266 265 264 262 258 256 255 253 251 249 248 245 242 241 241 241 243 245 247 249 251 253 254 256 256 257 259 261 261 263
226 228 232 236 241 246 250 255 258 261 263 266 267 265 266 266 265 264 261 257 253 251 249 248 247 245 242 240 240 241 242 243 246 248 250 252 254 255 256 257 259 260 262 263
230 233 237 242 248 252 256 260 264 266 268 269 270 271 267 268 266 263 260 258 254 250 248 246 244 243 241 239 238 239 240 241 244 247 249 251 253 255 256 257 258 261 262 264
234 238 243 249 254 258 262 265 268 270 272 273 273 274 271 271 268 263 259 256 254 251 248 245 242 241 239 237 236 236 238 239 242 245 248 251 254 256 257 257 259 261 263 264
239 243 248 253 257 262 266 269 272 274 275 276 277 277 275 274 272 267 261 257 253 251 248 245 241 239 237 236 234 234 235 237 240 243 247 250 253 255 256 258 259 261 263 265
242 247 251 255 260 264 269 273 276 277 277 278 278 278 279 276 273 268 263 259 255 251 249 245 242 238 236 235 234 233 234 236 239 242 245 248 252 254 256 258 259 261 263 266
241 247 252 257 262 267 271 275 278 280 282 283 282 281 282 278 274 271 266 262 258 253 248 244 241 237 234 233 232 232 233 234 237 240 244 247 250 254 256 257 259 261 263 266
242 247 253 260 265 269 274 277 279 282 284 285 286 287 285 278 274 271 267 263 259 253 247 242 238 235 232 230 229 229 230 231 234 238 242 245 249 252 255 257 259 262 265 268
242 249 254 261 266 272 275 279 282 283 286 289 291 293 291 281 274 270 269 265 260 254 247 241 235 232 228 226 225 225 226 228 231 235 239 243 247 251 254 257 259 262 266 270
244 250 256 263 270 273 276 280 282 283 287 292 296 296 294 286 280 277 274 269 262 254 246 238 230 226 223 222 221 221 223 225 228 232 237 242 247 251 254 257 260 264 268 272
244 251 259 265 269 273 277 281 282 286 290 294 297 300 298 290 285 280 276 272 264 253 242 232 223 217 217 216 216 217 219 222 226 231 236 241 246 250 254 258 262 267 271 274
246 254 260 263 267 271 277 281 285 288 293 297 300 305 301 295 292 286 282 274 262 246 232 219 212 208 208 209 211 213 216 219 224 230 235 241 246 250 255 260 265 269 273 276
247 252 255 261 268 274 280 283 286 291 297 302 306 307 303 301 298 294 286 272 252 227 212 205 201 198 200 202 205 208 212 217 223 229 235 241 247 252 257 262 267 271 275 279
246 248 250 257 267 274 283 286 288 293 298 305 310 311 312 303 300 300 295 270 225 198 192 190 189 190 192 195 199 204 210 216 223 230 236 242 248 254 259 265 269 273 277 282
246 247 247 254 265 274 282 287 290 296 299 305 307 317 321 316 315 317 324 157 167 170 172 174 177 180 185 190 196 202 209 217 225 232 238 244 250 256 262 266 271 276 281 285
245 244 243 248 260 267 274 282 295 305 303 296 301 311 321 325 332 32 70 110 136 151 159 163 169 175 181 187 194 203 212 220 228 234 240 247 253 259 264 270 275 280 285 289
238 236 238 242 247 258 266 277 294 307 311 304 303 303 318 345 33 87 109 121 134 144 152 159 166 174 181 189 198 206 214 222 229 236 243 249 255 262 268 274 280 284 288 291
230 232 234 234 231 234 239 249 294 286 344 350 335 341 353 45 95 106 116 124 134 144 153 160 167 175 183 192 200 209 217 224 232 239 246 254 261 268 274 279 283 287 291 293
227 228 226 221 215 203 202 208 147 140 139 88 91 75 66 90 117 121 124 132 140 146 154 163 170 178 186 195 203 211 219 228 236 245 253 260 267 273 278 283 287 290 293 295
221 216 210 207 202 190 189 186 165 155 153 147 138 123 102 108 112 128 140 145 151 157 162 169 175 183 190 198 207 216 226 235 245 254 261 268 274 280 284 287 290 293 295 297
211 207 205 203 202 190 185 179 180 179 178 184 179 165 154 159 158 147 148 154 163 167 170 176 182 190 199 208 218 228 238 249 257 264 271 276 281 284 287 290 293 295 297 299
209 207 207 207 204 194 190 188 195 202 200 192 196 202 190 180 177 175 170 167 168 173 181 188 195 203 214 225 236 246 255 262 268 273 278 282 285 288 291 293 296 298 300 302
208 208 209 209 205 206 204 207 208 212 215 213 214 218 216 204 192 182 182 188 189 191 198 207 214 226 233 243 253 260 266 271 275 280 284 287 290 292 294 297 299 301 302 304
214 213 212 213 211 207 210 215 218 221 226 232 233 239 237 229 222 214 210 211 212 217 223 225 230 240 247 256 264 271 275 279 283 286 289 292 294 296 298 300 302 303 304 306
221 218 218 220 219 217 219 222 227 229 230 232 236 241 240 238 231 225 221 221 223 225 229 235 242 252 261 266 272 279 283 286 288 291 294 296 298 300 302 303 304 305 306 308
Height
5685 5691 5694 5696 5700 5704 5706 5709 5711 5713 5713 5715 5718 5720 5723 5723 5724 5725 5725 5725 5726 5728 5731 5733 5736 5739 5742 5745 5748 5750 5752 5754 5756 5758 5760 5761 5762 5763 5764 5764 5764 5764 5764 5763
5681 5684 5687 5690 5693 5696 5698 5701 5702 5704 5704 5706 5709 5711 5713 5713 5714 5715 5714 5714 5716 5717 5719 5722 5725 5728 5732 5736 5739 5742 5744 5746 5748 5751 5752 5754 5755 5756 5757 5757 5757 5757 5757 5756
5674 5678 5681 5684 5686 5689 5691 5692 5693 5694 5695 5696 5697 5701 5705 5704 5703 5703 5702 5702 5703 5705 5707 5710 5713 5717 5722 5726 5730 5733 5736 5738 5741 5743 5745 5747 5747 5748 5749 5750 5750 5750 5750 5749
5668 5672 5675 5677 5679 5681 5683 5684 5684 5685 5685 5686 5687 5685 5695 5693 5692 5690 5688 5687 5688 5691 5694 5697 5701 5705 5710 5715 5719 5723 5726 5729 5732 5735 5737 5739 5740 5741 5742 5742 5743 5743 5742 5742
5662 5665 5668 5671 5672 5673 5675 5675 5676 5675 5674 5675 5676 5672 5679 5679 5678 5676 5673 5672 5673 5676 5680 5684 5689 5693 5698 5703 5708 5712 5716 5720 5723 5726 5728 5731 5733 5734 5735 5735 5735 5735 5735 5735
5656 5659 5662 5663 5665 5666 5666 5667 5666 5664 5663 5664 5665 5659 5664 5666 5662 5658 5657 5657 5658 5660 5665 5669 5674 5679 5685 5690 5696 5701 5706 5710 5714 5718 5720 5723 5725 5726 5727 5727 5728 5728 5728 5727
5649 5652 5654 5656 5657 5658 5659 5658 5657 5654 5653 5654 5651 5647 5651 5651 5644 5641 5640 5641 5642 5644 5648 5654 5659 5665 5672 5678 5685 5691 5696 5701 5705 5709 5712 5715 5717 5719 5720 5720 5720 5720 5720 5719
5643 5646 5648 5649 5650 5650 5650 5650 5649 5645 5642 5640 5637 5635 5639 5635 5628 5623 5623 5623 5624 5627 5631 5637 5643 5650 5658 5665 5673 5680 5686 5691 5696 5701 5704 5707 5710 5711 5712 5713 5713 5713 5712 5712
5636 5639 5641 5641 5642 5643 5642 5641 5639 5636 5632 5628 5626 5624 5624 5619 5613 5608 5607 5606 5607 5609 5614 5620 5626 5635 5643 5652 5660 5668 5675 5682 5687 5692 5696 5699 5702 5704 5705 5705 5705 5705 5705 5704
5630 5633 5634 5634 5635 5634 5633 5632 5630 5626 5622 5617 5615 5613 5610 5604 5599 5596 5592 5589 5590 5592 5596 5602 5610 5620 5629 5639 5648 5657 5665 5672 5678 5683 5688 5691 5694 5696 5697 5698 5698 5698 5697 5695
5623 5626 5628 5628 5627 5626 5626 5625 5621 5618 5615 5610 5604 5606 5600 5594 5588 5583 5579 5574 5573 5575 5578 5584 5593 5604 5616 5627 5637 5647 5655 5663 5670 5675 5680 5684 5687 5689 5690 5690 5690 5690 5689 5687
5617 5620 5621 5622 5621 5619 5619 5617 5614 5611 5608 5602 5595 5597 5592 5585 5578 5573 5568 5562 5559 5559 5562 5568 5578 5591 5604 5617 5628 5638 5647 5655 5662 5668 5673 5677 5680 5682 5683 5683 5683 5682 5680 5678
5611 5614 5615 5616 5616 5614 5613 5611 5607 5604 5600 5595 5589 5589 5584 5577 5570 5564 5558 5552 5548 5548 5551 5558 5569 5582 5596 5610 5622 5632 5641 5649 5656 5662 5666 5670 5673 5674 5675 5676 5675 5674 5672 5670
5606 5608 5610 5611 5609 5607 5607 5605 5601 5597 5593 5590 5585 5581 5578 5570 5564 5559 5552 5545 5541 5541 5545 5553 5565 5578 5592 5605 5617 5627 5636 5644 5651 5656 5660 5664 5666 5668 5668 5668 5667 5666 5664 5662
5601 5603 5604 5604 5603 5602 5601 5600 5596 5592 5589 5585 5582 5576 5572 5566 5561 5556 5549 5544 5541 5542 5546 5554 5566 5578 5592 5604 5614 5624 5633 5640 5646 5651 5655 5658 5660 5661 5661 5660 5659 5658 5656 5653
5596 5598 5599 5600 5598 5597 5596 5595 5592 5589 5586 5582 5578 5575 5571 5565 5560 5556 5552 5548 5546 5548 5552 5560 5570 5582 5593 5604 5614 5623 5630 5636 5642 5646 5649 5651 5653 5654 5653 5653 5652 5650 5647 5644
5591 5593 5595 5595 5594 5594 5594 5591 5589 5586 5584 5580 5577 5575 5571 5567 5563 5560 5557 5555 5554 5556 5561 5568 5577 5587 5597 5606 5614 5621 5628 5633 5637 5641 5643 5645 5646 5647 5647 5646 5644 5642 5639 5635
5588 5589 5590 5591 5592 5591 5592 5589 5587 5585 5583 5580 5577 5575 5573 5570 5567 5565 5563 5563 5563 5566 5571 5577 5585 5592 5600 5607 5614 5619 5625 5629 5633 5636 5638 5639 5640 5640 5639 5638 5636 5633 5630 5626
5584 5585 5587 5588 5588 5588 5589 5587 5585 5584 5583 5581 5579 5577 5575 5572 5571 5570 5570 5571 5572 5575 5580 5585 5590 5596 5602 5607 5613 5618 5622 5626 5628 5631 5633 5634 5634 5633 5632 5630 5628 5625 5621 5617
5580 5582 5584 5585 5585 5586 5587 5586 5584 5585 5584 5582 5581 5580 5578 5577 5576 5576 5576 5577 5580 5582 5586 5590 5594 5598 5603 5608 5612 5616 5619 5622 5624 5626 5627 5628 5627 5626 5625 5622 5619 5616 5612 5607
5577 5579 5581 5582 5582 5584 5585 5585 5585 5586 5586 5584 5582 5582 5581 5581 5581 5581 5581 5582 5584 5587 5590 5593 5596 5600 5603 5607 5610 5614 5616 5619 5620 5621 5622 5621 5621 5619 5617 5614 5611 5607 5602 5597
5574 5576 5578 5579 5580 5584 5583 5584 5585 5585 5585 5584 5584 5584 5583 5583 5583 5584 5584 5586 5587 5589 5592 5595 5597 5600 5603 5606 5609 5611 5613 5615 5616 5616 5616 5615 5614 5612 5609 5606 5602 5597 5592 5586
5572 5575 5576 5578 5581 5581 5582 5583 5584 5584 5585 5585 5585 5585 5585 5585 5585 5586 5587 5588 5590 5591 5593 5596 5598 5600 5602 5605 5607 5608 5609 5610 5611 5611 5610 5608 5606 5604 5601 5597 5592 5587 5581 5575
5570 5572 5574 5576 5578 5579 5580 5582 5583 5584 5584 5584 5585 5585 5585 5586 5586 5587 5588 5589 5591 5592 5594 5596 5597 5599 5601 5602 5604 5605 5606 5606 5606 5605 5604 5602 5599 5596 5592 5588 5582 5577 5571 5564
5568 5570 5571 5573 5576 5577 5579 5580 5582 5582 5583 5584 5584 5585 5585 5586 5586 5587 5588 5589 5590 5592 5593 5595 5596 5598 5599 5600 5601 5601 5601 5601 5600 5599 5597 5594 5591 5587 5583 5578 5572 5566 5560 5553
5566 5568 5570 5572 5574 5576 5577 5578 5580 5581 5582 5583 5583 5584 5584 5585 5585 5586 5587 5588 5589 5591 5592 5593 5595 5596 5596 5597 5597 5597 5597 5596 5594 5592 5590 5587 5583 5578 5573 5568 5562 5555 5549 5542